Regional Weather Roundup
Issued by NWS

Home | Current Version | Previous Version | Text Only | Print | Product List | Glossary On
Versions: 1 2 3 4 5 6 7 8 9 10 11 12 13 14 15 16 17 18 19 20 21 22 23 24 25 26 27
000
ASUS44 KJAN 221210
RWRMS

MISSISSIPPI HOURLY WEATHER ROUNDUP
NATIONAL WEATHER SERVICE JACKSON MS
600 AM CST THU FEB 22 2018

NOTE: "FAIR: INDICATES FEW OR NO CLOUDS BELOW 12,000 FEET WITH NO
SIGNIFICANT WEATHER AND/OR OBSTRUCTIONS TO VISIBILITY.

MSZ001>002-007>008-010>013-018>021-025>028-034>036-221300-
NORTHWEST MISSISSIPPI

CITY           SKY/WX    TMP DP  RH WIND       PRES   REMARKS
BATESVILLE       N/A    N/A N/A N/A MISG        N/A
CLARKSDALE     CLOUDY    43  43 100 NW9       30.30R FOG
CLEVELAND      CLOUDY    46  46 100 N12       30.27R
GREENWOOD      CLOUDY    57  57 100 NE3       30.24R
6HR MIN TEMP:  57; 6HR MAX TEMP:  59; 6HR PCP:  0.61;

GREENVILLE     RAIN      46  44  93 N12       30.25R
6HR MIN TEMP:  44; 6HR MAX TEMP:  53; 6HR PCP:  1.72;

OXFORD         RAIN      59  59 100 S9        30.25R
TUNICA           N/A     39  37  93 N13       30.31R FOG     WCI  32
WINONA         CLOUDY    61  61 100 CALM      30.25R
$$

MSZ003>006-009-014>017-022>024-029>033-037>039-221300-
NORTHEAST MISSISSIPPI

CITY           SKY/WX    TMP DP  RH WIND       PRES   REMARKS
ABERDEEN       CLOUDY    70  70 100 CALM      30.29R
COLUMBUS AFB   CLEAR     68  68 100 SE14      30.26S
6HR MIN TEMP:  69; 6HR MAX TEMP:  71;

CORINTH        DRIZZLE   57  57 100 S5        30.23R
GOLDN TRIANGLE FAIR      69  67  93 SE15      30.28R
STARKVILLE     FAIR      66  64  94 S8        30.28R
TUPELO         HVY RAIN  63  61  93 SW7       30.29R FOG
6HR MIN TEMP:  55; 6HR MAX TEMP:  63; 6HR PCP:  1.32;

$$

MSZ040-058-221300-
CENTRAL MISSISSIPPI

CITY           SKY/WX    TMP DP  RH WIND       PRES   REMARKS
JACKSON INTL   MOCLDY    70  68  93 S16       30.24S
6HR MIN TEMP:  70; 6HR MAX TEMP:  72;

JACKSON HAWKNS CLOUDY    70  69  97 S9          N/A
6HR MIN TEMP:  70; 6HR MAX TEMP:  71;

MADISON        CLOUDY    68  68 100 S5        30.24S
MERIDIAN KEY   FAIR      70  67  90 S9        30.30S
6HR MIN TEMP:  70; 6HR MAX TEMP:  73;

MERIDIAN NAS   FAIR      69  67  93 VRB5      30.31R
6HR MIN TEMP:  69; 6HR MAX TEMP:  73;

RAYMOND        FAIR      70  68  94 SE7       30.24R FOG
VICKSBURG VKS  MOSUNNY   59  59 100 CALM      30.24R
$$

MSZ059>079-221300-
SOUTH MISSISSIPPI

CITY           SKY/WX    TMP DP  RH WIND       PRES   REMARKS
COLUMBIA       CLOUDY    70  68  94 CALM      30.33R
HATTIESBURG    CLOUDY    70  70 100 SE3       30.30R
6HR MIN TEMP:  68; 6HR MAX TEMP:  72;

LAUREL           N/A     69  69 100 SE6       30.31R
MCCOMB         CLOUDY    71  68  90 S6        30.27R
6HR MIN TEMP:  71; 6HR MAX TEMP:  73;

NATCHEZ        MOCLDY    70  68  93 S7        30.24R
6HR MIN TEMP:  70; 6HR MAX TEMP:  73;

PINE BELT      FAIR      69  68  96 SE5       30.30R FOG
6HR MIN TEMP:  69; 6HR MAX TEMP:  71;

$$

MSZ080>082-221300-
COASTAL MISSISSIPPI

CITY           SKY/WX    TMP DP  RH WIND       PRES   REMARKS
BILOXI         FAIR      71  70  97 SE6       30.29R
6HR MIN TEMP:  71; 6HR MAX TEMP:  72;

PASCAGOULA     MOCLDY    70  67  90 SE6       30.30R
6HR MIN TEMP:  69; 6HR MAX TEMP:  73;

GULFPORT       CLOUDY    72  72 100 SE12      30.28S FOG
6HR MIN TEMP:  72; 6HR MAX TEMP:  72;

$$

LAZ007>009-015>016-023>026-221300-
NORTHEAST LOUISIANA

CITY           SKY/WX    TMP DP  RH WIND       PRES   REMARKS
BASTROP        CLOUDY    49  49  98 CALM      30.26R
TALLULAH/VBURG MOCLDY    59  59 100 CALM      30.23R
6HR MIN TEMP:  58; 6HR MAX TEMP:  62; 6HR PCP:  0.02;

VIDALIA        CLOUDY    62  61  97 CALM      30.23R
$$




USA.gov is the U.S. government's official web portal to all federal, state and local government web resources and services.